Miscellaneous Local Product
Issued by NWS North Platte, NE

Home | Current Version | Previous Version | Graphics & Text | Print | Product List | Glossary On
Versions: 1 2 3 4 5 6 7 8 9 10 11 12 13 14 15 16 17 18 19 20 21 22 23 24 25 26 27 28 29 30 31 32 33 34 35 36 37 38 39 40 41 42 43 44 45 46 47 48 49 50
438
AXUS43 KLBF 160310
MISLBF


WESTERN AND NORTH CENTRAL NEBRASKA HOURLY WEATHER ROUNDUP
NATIONAL WEATHER SERVICE NORTH PLATTE NE
1000 PM CDT SUN OCT 15 2017

NOTE: "FAIR" INDICATES FEW OR NO CLOUDS BELOW 12,000 FEET WITH NO
SIGNIFICANT WEATHER AND/OR OBSTRUCTIONS TO VISIBILITY.

NOTE: STATIONS NOT REPORTING VARIABLES SUCH AS SKY/WEATHER OR
PRESSURE ARE PROVIDED BY RAWS AND APRS NETWORKS AND ARE NOT UNDER
NATIONAL WEATHER SERVICE QUALITY CONTROL.

...OBSERVATIONS IN AND NEAR THE EASTERN PANHANDLE OF NEBRASKA...

CITY           SKY/WX    TMP DP  RH WIND       PRES   REMARKS
PINE RIDGE     CLEAR     39  30  70 CALM      30.31S
GORDON         FAIR      35  29  79 CALM      30.32S
CHADRON        CLEAR     37  28  70 W5        30.31F WCI  33
ALLIANCE       CLEAR     39  26  59 E5        30.35R
SIDNEY         CLEAR     34  25  69 S7        30.38S WCI  28
CRESCENT LAKE    N/A     47  29  50 CALM        N/A
$$

...OBSERVATIONS IN NORTHERN NEBRASKA AND FAR SOUTHERN SOUTH DAKOTA...

CITY           SKY/WX    TMP DP  RH WIND       PRES   REMARKS
WINNER         FAIR      47  32  56 SW7       30.31R
VALENTINE      CLEAR     37  29  72 SW6       30.33R WCI  32
THEDFORD       PTCLDY    43  31  61 CALM      30.35S
AINSWORTH      CLEAR     41  32  71 CALM      30.33S
O`NEILL        CLEAR     42  36  78 SW5       30.33S
ORD            CLEAR     39  32  76 SW3       30.34R
BROKEN BOW     CLEAR     37  32  82 CALM      30.35S
VALENTINE NWR    N/A     38  30  72 CALM        N/A
BUTTE            N/A     47  34  60 CALM        N/A
CHAMBERS         N/A     39  31  72 CALM        N/A
EWING            N/A     40  33  76 CALM        N/A
$$

...OBSERVATIONS IN SOUTHWEST NEBRASKA AND FAR NORTHEAST COLORADO...

CITY           SKY/WX    TMP DP  RH WIND       PRES   REMARKS
WRAY           FAIR      45  27  49 CALM      30.38S
HOLYOKE        FAIR      41  30  65 SW5       30.38S
IMPERIAL       CLEAR     44  26  49 CALM      30.37S
OGALLALA       CLEAR     39  31  73 CALM      30.37R
NORTH PLATTE   CLEAR     39  33  79 CALM      30.36S
MCCOOK         CLEAR     44  31  60 SW8       30.36F
LEXINGTON      CLEAR     42  33  70 N6        30.37R
STAPLETON        N/A     44  31  60 CALM        N/A
GOTHENBURG       N/A     47  31  53 CALM        N/A
CALLAWAY         N/A     37  33  86 CALM        N/A
$$

...OBSERVATIONS IN CENTRAL LINCOLN COUNTY AREA...

CITY           SKY/WX    TMP DP  RH WIND       PRES   REMARKS
N.P. AIRPORT   CLEAR     39  33  79 CALM      30.36S
N.P. DOWNTOWN    N/A     42  35  77 CALM        N/A
N.P. HILLCREST   N/A     53  29  39 CALM        N/A
$$

...SOME OBSERVATIONS FROM AROUND THE REGION...

CITY           SKY/WX    TMP DP  RH WIND       PRES   REMARKS
DENVER         CLEAR     49  20  31 W5        30.40S
LIMON          CLEAR     39  25  57 SE3       30.44R
ASPEN          CLOUDY    38  15  39 S9        30.54S WCI  31
LARAMIE        CLOUDY    39  20  46 SE6       30.45S WCI  35
CASPER         CLEAR     42  24  49 SW12      30.33S
CHEYENNE       CLEAR     43  23  45 CALM      30.42F
SCOTTSBLUFF    CLEAR     41  27  57 E5        30.35S
GRAND ISLAND   CLEAR     43  39  86 W3        30.36R
OMAHA          CLEAR     48  37  65 SE5       30.32R
SIOUX FALLS    CLEAR     44  36  73 W6        30.27R
PIERRE         CLEAR     43  32  65 W5        30.26S
RAPID CITY     CLEAR     36  27  69 CALM      30.29S
BISMARCK       CLEAR     34  27  75 CALM      30.20F
KANSAS CITY    CLEAR     50  35  56 SW5       30.36S
HILL CITY      CLEAR     41  35  79 W3        30.38S
WICHITA        CLEAR     47  41  80 CALM      30.39S
DODGE CITY     CLEAR     48  32  53 SW5       30.42S
OKLAHOMA CITY  CLEAR     55  38  52 N8        30.40R
DALLAS         PTCLDY    61  44  53 N9        30.33R
AMARILLO       CLEAR     49  33  54 E6        30.47R
$$




USA.gov is the U.S. government's official web portal to all federal, state and local government web resources and services.